Regional Weather Roundup
Issued by NWS San Angelo, TX

Home | Current Version | Previous Version | Text Only | Print | Product List | Glossary On
Versions: 1 2 3 4 5 6 7 8 9 10 11 12 13 14 15 16 17 18 19 20 21 22 23 24 25 26 27 28 29 30 31 32 33 34 35 36 37 38 39 40 41 42 43 44 45 46 47 48 49 50
000
ASUS44 KSJT 270510
RWRSJT
WEST CENTRAL TEXAS REGIONAL WEATHER ROUNDUP
NATIONAL WEATHER SERVICE SAN ANGELO TX
1200 AM CDT FRI MAR 27 2015

NOTE: "FAIR" INDICATES FEW OR NO CLOUDS BELOW 12,000 FEET WITH NO
SIGNIFICANT WEATHER AND/OR OBSTRUCTIONS TO VISIBILITY.

TXZ049-054-064>066-071>073-076>078-098-099-113-114-127-128-139-140-
154-155-168>170-270600
...LOCATIONS ACROSS WEST CENTRAL TEXAS...

CITY           SKY/WX    TMP DP  RH WIND       PRES   REMARKS
SAN ANGELO     CLEAR     46  33  60 S6        30.23R
ABILENE        CLEAR     45  32  60 S8        30.20F
DYESS AFB      CLEAR     44  33  64 SW8       30.19F WCI  39
JUNCTION       CLEAR     50  30  46 CALM      30.24R
SWEETWATER     CLEAR     49  29  46 S9        30.23F
BROWNWOOD      CLEAR     41  37  87 CALM      30.21F
COLEMAN        CLEAR     48  33  56 CALM      30.21F
SONORA         CLEAR     41  36  81 CALM      30.29S
OZONA          FAIR      43  32  65 CALM      30.28R
BRADY          CLEAR     48  30  49 CALM      30.22F
$$

TEXAS PANHANDLE/OKLAHOMA PANHANDLE

CITY           SKY/WX    TMP DP  RH WIND       PRES   REMARKS
AMARILLO       PTCLDY    49  20  31 CALM      30.18S
BORGER         MOCLDY    57  19  22 CALM      30.17R
CANADIAN       CLEAR     43  30  59 W5        30.14R
DALHART        MOCLDY    47  27  45 CALM      30.20R
DUMAS          CLOUDY    43  20  39 W5        30.18R
GUYMON         NOT AVBL
HEREFORD       PTCLDY    38  24  55 CALM      30.20R
PAMPA          MOCLDY    47  20  33 W5        30.17R
PERRYTON       MOCLDY    43  27  52 N7        30.16R WCI  39
$$

SOUTHERN PANHANDLE/SOUTH PLAINS/ROLLING PLAINS

CITY           SKY/WX    TMP DP  RH WIND       PRES   REMARKS
LUBBOCK        CLEAR     44  21  40 SW7       30.19S
SNYDER         CLEAR     47  25  41 S6        30.22S
CHILDRESS      CLEAR     50  24  36 SW12      30.15S
SEMINOLE       CLEAR     45  23  41 SW8       30.24S
$$

PERMIAN BASIN

CITY           SKY/WX    TMP DP  RH WIND       PRES   REMARKS
MIDLAND        CLEAR     52  31  44 SW8       30.23S
ODESSA         CLEAR     50  30  46 SW6       30.24S
WINK           CLEAR     48  26  42 SW9       30.24R
$$

FAR WEST/SOUTHWEST MOUNTAINS/TRANS PECOS

CITY           SKY/WX    TMP DP  RH WIND       PRES   REMARKS
ALPINE         CLEAR     40  33  76 SW6       30.36S WCI  36
DRYDEN           N/A     53  38  56 NW8       30.25R
EL PASO        CLEAR     57  27  31 S6        30.23S
FORT STOCKTON  CLEAR     46  34  62 SW9       30.27S
GUADALUPE PASS CLEAR     49  24  37 SW15      30.29F
MARFA          CLEAR     37  30  75 NW5       30.32S WCI  34
PECOS          CLEAR     46  32  60 S8        30.26S
$$

DALLAS/FORT WORTH METROPLEX

CITY           SKY/WX    TMP DP  RH WIND       PRES   REMARKS
DFW AIRPORT    CLEAR     52  32  46 CALM      30.15S
FTW MEACHAM    CLEAR     51  33  50 W3        30.16S
DAL-EXECUTIVE    N/A     48  34  58 NW5       30.15F
GRAND PRAIRIE  NOT AVBL
ADDISON        CLEAR     53  33  47 CALM      30.17S
MESQUITE       CLEAR     49  33  52 CALM      30.16F
LANCASTER      CLEAR     46  35  67 CALM      30.17F
$$

NORTH CENTRAL TEXAS

CITY           SKY/WX    TMP DP  RH WIND       PRES   REMARKS
SHRMAN/DENISON CLEAR     49  37  61 S5        30.13F
GAINESVILLE    CLEAR     45  36  71 W5        30.15F
BRIDGEPORT     CLEAR     49  37  61 SW5       30.18S
DENTON         CLEAR     46  37  71 SW3       30.15F
WAXAHACHIE     CLEAR     45  36  71 W3        30.18F
GRANBURY         N/A     49  37  64 CALM      30.20S
$$

WESTERN NORTH TEXAS

CITY           SKY/WX    TMP DP  RH WIND       PRES   REMARKS
WICHITA FALLS  CLEAR     46  35  65 S9        30.13S
VERNON         CLEAR     46  32  59 SW8       30.14F
BRECKENRIDGE   CLEAR     47  35  61 CALM      30.18S
COMANCHE       CLEAR     53  32  45 CALM      30.20F
$$

CENTRAL AND SOUTH CENTRAL TEXAS

CITY           SKY/WX    TMP DP  RH WIND       PRES   REMARKS
AUSTIN/BERGSTM CLEAR     51  36  56 NW7       30.19R
WACO           CLEAR     50  36  58 NW8       30.19R
HILLSBORO      CLEAR     44  35  69 CALM      30.18S
TEMPLE         CLEAR     46  34  61 N6        30.19R
KILLEEN-GRAY   CLEAR     51  34  52 N9        30.20R
FORT HOOD      CLEAR     51  34  51 NW7       30.19R
GEORGETOWN     CLEAR     48  34  57 NW6       30.20R
LAGO VISTA     FAIR      55  32  41 N5        30.20S
SAN MARCOS     CLEAR     48  36  61 NW9       30.20R
NEW BRAUNFELS  CLEAR     53  36  52 N10       30.18R
RANDOLPH AFB   CLEAR     50  37  60 NW7       30.20R
SAN ANTONIO    CLEAR     51  39  63 NW3       30.21R
STINSON        CLEAR     58  36  43 N3        30.19R
PLEASANTON     NOT AVBL
LA GRANGE      CLEAR     53  42  66 NW3       30.15R
GIDDINGS       CLEAR     52  38  58 NW7       30.20R
$$

EAST TEXAS

CITY           SKY/WX    TMP DP  RH WIND       PRES   REMARKS
PARIS          NOT AVBL
CLARKSVILLE    NOT AVBL
TYLER          CLEAR     50  34  54 N5        30.14R
LONGVIEW       CLEAR     52  34  50 N8        30.12R
PALESTINE      CLEAR     47  38  70 CALM      30.16R
NACOGDOCHES    CLEAR     48  37  66 N7        30.12R
$$

TEXAS HILL COUNTRY AND EDWARDS PLATEAU

CITY           SKY/WX    TMP DP  RH WIND       PRES   REMARKS
LLANO          CLEAR     46  34  61 NW3       30.26R
HORSESHOE BAY  FAIR      45  39  81 CALM      30.22R
KERRVILLE      CLEAR     46  38  75 CALM      30.23R
FREDERICKSBRG  CLEAR     44  34  68 NW5       30.22R
ROCKSPRINGS    NOT AVBL
HONDO          CLEAR     47  39  74 N8        30.23R
UVALDE         CLEAR     50  40  69 N5        30.23S
DEL RIO        CLEAR     54  40  59 CALM      30.22R
$$

SOUTHEAST TEXAS

CITY           SKY/WX    TMP DP  RH WIND       PRES   REMARKS
COLLEGE STN    CLEAR     52  38  58 N8        30.15R
CALDWELL       CLEAR     52  37  58 NW6       30.20R
CROCKETT       CLEAR     54  41  62 NW3       30.17R
BRENHAM        CLEAR     52  41  66 NW6       30.16R
HUNTSVILLE     CLEAR     51  39  63 N5        30.13R
CONROE         CLEAR     50  43  77 N6        30.13R
HOUSTON BUSH   PTCLDY    56  47  71 NW9       30.11R
HOUSTON HOBBY  PTCLDY    58  49  72 N8        30.10R
PERLAND        PTCLDY    60  49  66 N7        30.11R
WHARTON        CLEAR     55  44  64 N13       30.13R
$$

THE UPPER TEXAS COAST

CITY           SKY/WX    TMP DP  RH WIND       PRES   REMARKS
ORANGE         PTCLDY    55  47  73 N7        30.08S
PORT ARTHUR    PTCLDY    56  48  74 N13G21    30.07R
GALVESTON      CLEAR     62  50  64 N24G33    30.09R
ANGLETON       PTCLDY    57  49  74 N8        30.09R
BAY CITY       PTCLDY    59  50  70 N9        30.11R
$$

TEXAS COASTAL BEND, RIO GRANDE PLAINS DEEP SOUTH TEXAS

CITY           SKY/WX    TMP DP  RH WIND       PRES   REMARKS
VICTORIA       CLEAR     56  46  69 N7        30.15R
BEEVILLE       FAIR      56  48  74 N7        30.16R
ROCKPORT       PTCLDY    63  48  58 N16       30.12F
PORT ARANSAS   PTCLDY    62  52  68 N13G18    30.13R
PORT LAVACA    PTCLDY    56  47  72 N10       30.14S
CORPUS CHRISTI PTCLDY    61  51  70 N8        30.14R
KINGSVILLE NAS PTCLDY    58  54  86 NW8       30.15R
COTULLA        CLEAR     60  43  53 NE8       30.20R
LAREDO         PTCLDY    58  49  72 W6        30.21R
BROWNSVILLE    PTCLDY    61  52  72 NW7       30.14R
PORT ISABEL    PTCLDY    62  53  72 NW10      30.13R
HEBBRONVILLE   NOT AVBL
MCALLEN        PTCLDY    63  53  70 NW6       30.17R
WESLACO        PTCLDY    59  53  79 NW6       30.16R
FALFURRIAS     PTCLDY    59  53  80 CALM      30.16R
EDINBURG       PTCLDY    60  53  78 NW5       30.16R
$$


USA.gov is the U.S. government's official web portal to all federal, state and local government web resources and services.